SCP
0 0 0 0 0 0 0 0 0 0 0 0 1 1 1 0 0 0 0 1 0 1 1 1 1 1 1 1 0 1 0 0 0 0 0 0 0 0 0 0 0 0 0 0
0 0 0 0 0 0 0 0 0 0 0 0 1 1 1 0 0 0 0 0 0 0 0 0 1 1 1 1 1 0 1 0 1 0 1 0 0 1 0 0 0 0 0 0
0 0 0 0 0 0 0 0 0 0 0 1 1 1 1 0 0 0 0 0 0 0 0 1 0 0 1 0 0 0 -0 0 0 1 1 0 0 0 0 0 0 1 1 0
0 0 0 0 0 0 0 0 0 0 0 0 1 1 1 1 1 0 1 1 1 1 1 1 0 0 -0 -0 0 0 0 0 0 0 0 0 0 0 0 1 1 2 2 1
0 0 0 0 0 0 0 0 0 0 1 1 1 1 1 0 1 1 1 1 1 0 0 0 0 0 0 0 -0 -0 -0 0 0 0 0 0 0 0 0 1 1 1 0 0
0 0 0 0 0 0 0 0 0 1 0 1 1 1 1 1 0 0 0 0 0 0 0 0 0 0 0 0 0 0 0 0 0 0 0 0 0 0 0 0 0 0 0 0
0 0 0 0 0 0 0 0 0 0 1 1 1 1 1 0 0 0 0 0 0 0 0 0 0 0 0 0 0 0 0 0 0 0 0 0 0 0 0 0 0 0 0 0
0 0 0 0 0 0 0 0 0 0 1 1 0 0 0 0 0 0 0 0 0 0 0 0 0 0 0 0 0 0 0 0 0 0 0 0 0 0 0 0 0 1 0 0
0 0 0 0 0 0 0 1 0 1 1 1 0 1 1 1 1 0 0 0 0 0 0 0 0 0 0 0 0 0 0 0 0 0 0 0 0 0 1 0 0 1 0 0
0 0 0 0 0 0 0 0 0 1 1 1 1 1 1 1 1 1 1 0 0 0 0 0 0 0 0 0 0 0 0 0 0 0 0 0 0 0 0 0 0 0 0 0
0 0 0 0 0 0 0 0 0 1 1 0 1 0 0 0 0 0 0 0 0 0 0 0 0 0 0 -0 -0 0 0 0 0 0 0 0 0 0 0 0 0 0 0 0
0 0 0 0 0 0 0 0 0 0 0 0 0 0 0 0 0 0 0 0 0 0 0 0 0 0 0 0 0 0 0 0 0 0 0 0 0 0 0 0 0 0 0 0
0 0 0 0 0 0 1 0 0 0 0 0 0 0 0 0 0 0 0 0 0 0 0 0 0 0 0 0 0 0 0 0 0 0 0 0 0 0 0 0 0 0 0 0
0 0 0 0 0 0 0 0 0 0 0 0 0 0 0 0 0 0 0 0 0 0 0 0 0 0 0 0 0 0 0 0 0 0 0 0 0 0 0 0 0 0 0 0
0 0 0 0 0 0 0 0 0 0 0 0 0 0 0 0 0 0 0 0 0 0 0 0 0 0 0 0 0 0 0 0 0 0 0 0 0 0 0 0 0 0 0 0
0 0 0 0 0 0 0 0 0 0 0 0 0 0 0 0 0 0 0 0 0 0 0 0 0 0 0 0 0 0 0 0 0 0 0 0 0 0 0 0 0 0 0 0
0 0 0 0 0 0 0 0 0 0 0 0 0 0 0 0 0 0 0 0 0 0 0 0 0 0 0 0 0 0 0 0 0 0 0 0 0 0 0 0 0 0 0 0
0 0 0 0 0 0 0 0 0 0 0 0 0 0 0 0 0 0 0 0 0 0 0 0 0 0 0 0 0 0 0 0 0 0 0 0 0 0 0 0 0 0 0 0
0 0 0 0 0 0 0 0 0 0 0 0 0 0 0 0 0 0 0 0 0 0 0 0 0 0 0 0 0 0 0 0 0 0 0 0 0 0 0 0 0 0 0 0
0 0 0 0 0 0 0 0 0 0 0 0 0 0 0 0 0 0 0 0 0 0 0 0 0 0 0 0 0 0 0 0 0 0 0 0 0 0 0 0 0 0 0 0
0 0 0 0 0 0 0 0 0 0 0 0 0 0 0 0 0 0 0 0 0 0 0 0 0 0 0 0 0 0 0 0 0 0 0 0 0 0 0 0 0 0 0 0
0 0 0 0 0 0 0 0 0 0 0 0 0 0 0 0 0 0 0 0 0 -0 0 0 0 0 0 0 0 0 0 0 0 0 0 0 0 0 0 0 0 0 0 0
0 0 0 0 0 0 0 0 0 0 0 0 0 0 0 0 0 0 0 0 -0 0 0 0 0 0 0 0 0 -0 -0 -0 -0 0 0 0 0 0 0 0 0 0 0 0
0 0 0 0 0 0 0 0 0 0 0 0 0 0 0 0 0 0 0 0 0 0 0 0 0 0 0 0 0 -0 -0 -0 -0 -0 0 0 0 0 0 0 0 0 0 0
0 0 0 0 0 0 0 0 0 0 0 0 0 0 0 0 0 0 0 0 0 0 0 0 0 0 0 0 0 0 0 -0 -0 -0 0 0 0 0 0 0 0 0 0 0
0 0 0 0 0 0 0 0 0 0 0 0 0 0 0 0 0 0 0 0 0 0 0 0 0 0 0 0 0 0 0 0 -0 -0 -0 0 0 0 0 0 0 0 0 0
0 0 0 0 0 0 0 0 0 0 0 0 0 0 0 0 0 0 0 0 0 0 0 0 0 0 0 0 0 0 0 0 0 -0 0 -0 -0 0 0 0 0 0 0 0
Wind_Speed_500mb
20 12 16 17 25 23 21 17 17 20 19 22 29 23 23 25 20 21 19 23 29 32 35 32 31 17 7 9 19 25 28 29 33 40 42 42 47 46 44 44 47 47 43 43
17 13 21 17 23 22 16 10 15 14 18 8 32 33 21 17 17 12 9 12 11 30 34 32 31 31 23 15 20 34 28 24 26 24 25 27 28 28 40 46 43 44 43 41
31 14 13 17 27 27 13 14 8 15 7 29 31 31 27 20 16 13 7 9 9 15 10 25 31 26 35 31 23 31 37 28 29 29 28 27 34 27 37 49 49 41 37 37
23 15 30 6 4 19 22 10 17 3 17 35 36 28 24 18 17 17 18 11 13 18 16 13 12 16 5 34 33 27 26 27 33 33 31 38 34 35 46 42 46 40 38 39
15 25 9 5 10 18 22 15 15 18 24 37 42 36 19 21 21 21 22 19 17 17 18 17 15 7 3 9 25 23 19 19 21 25 25 34 36 25 23 35 39 34 35 40
9 28 32 18 21 18 14 13 28 35 41 48 53 22 19 39 34 31 27 23 24 24 22 20 19 15 11 6 11 13 14 13 14 16 22 28 31 35 30 29 35 34 33 41
18 16 7 3 16 18 18 7 44 48 56 58 34 22 55 48 40 36 32 29 25 24 23 20 16 13 11 13 17 22 25 22 20 20 23 28 29 26 27 16 18 23 37 46
7 16 24 14 15 12 3 11 42 53 57 44 8 39 57 49 44 39 35 29 22 20 17 15 13 13 19 26 31 27 24 24 22 22 22 25 29 17 18 18 23 29 29 33
11 14 8 3 5 9 12 7 31 50 53 51 35 36 37 38 38 30 25 25 17 13 13 13 20 28 32 37 38 34 32 23 20 24 26 23 22 19 11 18 27 27 22 14
13 11 19 18 10 2 9 14 23 39 47 49 44 42 36 31 25 17 11 11 9 9 12 18 26 33 39 43 43 44 39 27 22 23 27 27 21 23 20 17 15 19 34 30
5 8 10 14 19 12 2 18 32 42 63 42 50 51 42 28 22 15 8 5 3 10 17 23 29 37 43 46 47 43 40 32 24 22 26 26 26 21 18 17 18 13 21 18
16 21 8 7 9 10 26 32 41 47 46 39 33 32 27 25 18 17 13 7 6 9 13 21 27 32 34 39 40 39 37 34 28 25 24 24 27 25 21 17 17 19 17 14
18 21 23 24 34 43 45 45 49 52 47 48 35 32 29 27 21 17 14 12 8 6 8 14 16 23 28 34 39 38 37 34 30 27 26 27 30 26 24 24 17 17 17 16
25 22 21 46 44 48 48 49 47 46 41 39 39 34 28 22 18 15 14 13 11 8 6 8 12 19 26 31 35 37 38 37 33 28 27 29 30 30 25 23 21 15 14 16
40 35 37 53 50 58 51 50 44 41 35 31 27 24 24 23 19 18 16 15 13 10 9 10 14 17 22 26 27 29 33 35 33 28 26 30 31 28 26 21 25 17 13 13
35 28 34 65 71 64 53 43 40 38 31 27 27 26 25 25 26 24 20 15 14 10 9 9 13 17 21 25 26 24 25 28 32 28 24 29 30 28 24 21 21 19 20 15
45 35 46 72 73 66 55 41 34 33 32 30 27 25 29 32 32 29 21 17 14 11 7 6 9 18 25 30 33 29 25 23 25 30 26 24 29 27 25 21 17 16 21 18
38 35 60 72 65 55 46 41 36 33 33 30 29 30 33 32 28 25 22 17 11 5 1 7 12 18 24 31 36 37 33 29 26 24 23 24 26 30 28 26 25 20 19 20
33 32 40 44 48 50 49 44 39 34 31 31 30 30 30 29 28 28 24 17 12 5 4 6 10 14 20 31 35 41 35 29 28 26 22 22 26 27 29 26 28 25 21 23
45 61 57 53 47 43 44 40 36 34 29 30 32 31 31 33 30 28 25 17 8 6 4 5 7 15 25 30 33 39 36 28 24 24 22 21 24 23 25 25 23 25 23 22
39 49 46 46 44 39 36 35 34 35 33 31 34 32 32 28 29 31 24 14 10 9 11 11 15 22 32 32 34 37 35 27 23 22 20 19 18 17 17 19 17 18 21 22
38 45 42 38 36 35 30 28 28 30 32 32 30 33 34 35 35 27 20 12 10 14 14 10 11 18 30 39 41 40 42 37 31 22 14 10 7 10 11 12 13 15 16 17
41 39 37 33 27 25 26 25 25 27 31 31 31 38 39 36 32 31 24 15 14 13 8 5 3 7 14 28 38 44 45 44 39 31 22 14 9 4 7 10 14 15 15 15
40 36 28 26 26 26 27 26 24 25 27 29 32 35 36 35 32 27 17 16 12 8 3 8 2 4 5 12 27 34 46 47 52 36 28 19 17 19 16 16 19 23 21 20
29 30 29 28 26 26 26 28 29 29 29 28 29 30 31 35 32 26 17 14 16 5 4 12 7 4 4 5 13 21 27 37 52 53 35 38 30 28 26 24 24 25 23 21
28 27 27 28 25 23 25 26 25 30 30 25 28 28 31 31 30 21 19 18 13 9 8 7 3 5 6 6 7 11 18 22 30 42 48 49 40 37 40 35 31 28 27 26
28 25 22 20 24 24 22 20 24 30 26 25 26 29 38 32 26 26 27 21 13 8 5 3 7 10 10 9 5 6 10 16 18 22 28 42 41 47 32 36 34 39 37 32
Wind_Direction_500mb
230 228 208 198 184 178 196 229 237 249 218 205 195 184 159 156 163 146 117 93 80 76 81 70 56 40 5 277 273 286 252 244 253 262 264 267 267 266 264 259 259 256 261 267
232 200 212 214 196 189 207 187 231 240 250 238 163 158 159 180 179 205 142 104 100 99 78 69 55 40 28 353 325 279 271 262 272 278 268 271 278 289 289 265 252 248 251 262
234 210 202 236 209 197 192 198 209 210 233 152 159 161 172 198 215 225 209 121 173 194 110 72 75 47 7 346 302 293 293 286 266 268 274 280 275 292 279 294 261 245 247 259
233 167 226 202 238 231 216 196 198 173 164 173 161 146 150 162 162 148 143 131 108 120 102 95 86 58 356 324 318 300 290 284 274 273 275 263 268 263 272 257 247 238 237 246
217 217 243 158 173 175 187 201 211 187 157 158 144 134 139 160 149 130 128 118 109 105 75 67 68 134 155 249 296 334 315 293 287 283 272 260 257 254 282 267 255 249 256 262
170 222 232 218 183 177 151 229 187 178 171 164 156 170 167 169 155 143 133 118 110 102 95 89 93 101 70 20 11 355 333 326 323 308 296 286 266 258 267 288 262 255 261 266
197 224 216 191 151 153 202 251 180 188 177 173 188 177 157 157 151 146 136 125 118 114 110 103 94 81 66 36 14 8 360 355 351 352 334 320 306 271 250 267 284 281 269 282
153 228 227 151 129 201 283 299 196 181 173 177 226 144 148 148 148 147 140 129 123 115 99 77 63 45 26 21 20 12 358 351 346 338 344 334 331 289 239 256 252 253 266 307
218 229 140 145 321 301 272 223 191 177 171 175 161 142 142 140 142 146 141 133 126 108 88 41 13 4 0 360 359 1 1 354 340 335 330 337 325 331 255 256 262 264 259 290
159 180 169 152 129 340 243 219 206 178 170 182 164 157 158 154 155 159 126 106 89 50 22 360 352 348 342 341 340 341 342 348 340 326 316 313 315 315 318 305 282 268 261 261
185 171 164 120 80 78 163 189 170 166 176 171 154 161 167 164 168 155 154 143 -0 335 349 341 336 332 334 333 334 337 333 325 329 327 310 314 308 296 288 304 304 254 258 263
231 177 168 174 141 123 178 159 151 163 155 155 154 162 161 173 171 172 180 187 280 301 309 322 324 331 339 342 343 344 344 329 322 321 318 307 314 307 303 276 282 290 284 285
258 239 219 193 192 202 180 154 152 148 151 155 164 169 170 168 170 183 191 195 207 229 301 325 331 343 349 353 353 350 351 341 314 309 313 312 298 304 300 289 273 275 282 288
239 165 133 176 182 181 170 163 153 147 157 162 165 165 168 172 181 185 185 190 198 217 254 304 325 338 345 349 348 347 349 351 339 318 313 312 308 300 283 284 266 251 265 281
233 205 206 189 188 174 169 161 153 156 161 161 163 168 178 184 184 188 194 199 204 224 264 289 314 328 337 342 345 344 346 340 339 330 311 305 313 307 288 262 261 257 267 290
185 192 179 176 163 168 173 169 167 169 171 172 179 184 188 189 191 195 204 210 197 211 259 295 314 329 336 336 335 340 347 344 333 324 317 301 305 307 302 261 252 259 273 280
143 147 158 157 166 176 180 181 186 182 181 187 194 193 184 182 190 197 198 190 197 221 247 276 318 333 337 340 339 330 334 333 330 318 309 304 296 297 298 301 278 263 259 258
185 183 179 174 171 174 180 190 188 186 185 186 188 184 184 188 187 186 188 189 188 199 290 318 321 329 342 346 345 337 329 326 322 314 303 297 293 291 286 280 276 253 230 212
155 144 158 195 181 182 182 183 181 175 180 188 187 187 189 186 183 179 177 174 158 122 18 0 347 347 350 346 345 341 326 315 315 307 306 301 291 281 278 268 256 246 223 217
170 192 187 183 180 179 177 180 178 183 190 194 190 185 183 178 181 184 176 171 152 134 102 48 19 344 345 344 345 342 331 319 314 309 304 299 288 276 265 262 248 233 219 213
163 166 166 170 173 175 183 190 194 198 199 195 194 191 185 184 184 180 180 166 153 123 86 67 67 40 27 14 2 359 358 352 347 329 306 291 280 266 251 249 232 218 204 198
164 162 162 163 170 175 180 186 191 194 196 193 192 190 182 177 173 172 162 155 131 133 113 86 63 47 36 27 19 17 18 19 21 2 343 328 294 255 233 212 201 195 186 174
149 149 151 155 170 178 180 186 193 199 201 196 193 183 181 179 181 177 167 162 140 132 131 120 41 35 23 27 24 26 24 27 28 25 33 39 57 104 155 155 152 148 149 149
139 136 144 145 156 167 174 174 170 165 171 174 175 179 182 181 174 179 184 165 159 172 235 214 195 117 49 25 32 24 33 36 33 34 47 53 75 85 91 110 123 123 126 128
130 134 142 150 162 168 169 170 164 159 155 157 166 174 179 182 177 170 162 158 153 142 330 179 176 142 86 32 21 25 29 37 44 42 54 65 65 81 90 100 101 101 106 110
140 146 150 152 160 162 169 166 164 164 166 161 167 170 171 168 170 175 160 146 139 120 112 148 70 33 333 302 357 25 28 26 35 50 53 60 67 70 74 75 80 83 91 98
141 150 154 155 159 161 160 156 169 162 163 165 161 166 155 153 157 160 153 144 122 89 66 4 300 281 300 328 153 57 50 29 19 27 33 42 48 60 76 74 76 80 84 89
Wind_Speed_850mb
20 12 16 17 25 23 21 17 17 20 19 22 29 23 23 25 20 21 19 23 29 32 35 32 31 17 7 9 19 25 28 29 33 40 42 42 47 46 44 44 47 47 43 43
17 13 21 17 23 22 16 10 15 14 18 8 32 33 21 17 17 12 9 12 11 30 34 32 31 31 23 15 20 34 28 24 26 24 25 27 28 28 40 46 43 44 43 41
31 14 13 17 27 27 13 14 8 15 7 29 31 31 27 20 16 13 7 9 9 15 10 25 31 26 35 31 23 31 37 28 29 29 28 27 34 27 37 49 49 41 37 37
23 15 30 6 4 19 22 10 17 3 17 35 36 28 24 18 17 17 18 11 13 18 16 13 12 16 5 34 33 27 26 27 33 33 31 38 34 35 46 42 46 40 38 39
15 25 9 5 10 18 22 15 15 18 24 37 42 36 19 21 21 21 22 19 17 17 18 17 15 7 3 9 25 23 19 19 21 25 25 34 36 25 23 35 39 34 35 40
9 28 32 18 21 18 14 13 28 35 41 48 53 22 19 39 34 31 27 23 24 24 22 20 19 15 11 6 11 13 14 13 14 16 22 28 31 35 30 29 35 34 33 41
18 16 7 3 16 18 18 7 44 48 56 58 34 22 55 48 40 36 32 29 25 24 23 20 16 13 11 13 17 22 25 22 20 20 23 28 29 26 27 16 18 23 37 46
7 16 24 14 15 12 3 11 42 53 57 44 8 39 57 49 44 39 35 29 22 20 17 15 13 13 19 26 31 27 24 24 22 22 22 25 29 17 18 18 23 29 29 33
11 14 8 3 5 9 12 7 31 50 53 51 35 36 37 38 38 30 25 25 17 13 13 13 20 28 32 37 38 34 32 23 20 24 26 23 22 19 11 18 27 27 22 14
13 11 19 18 10 2 9 14 23 39 47 49 44 42 36 31 25 17 11 11 9 9 12 18 26 33 39 43 43 44 39 27 22 23 27 27 21 23 20 17 15 19 34 30
5 8 10 14 19 12 2 18 32 42 63 42 50 51 42 28 22 15 8 5 3 10 17 23 29 37 43 46 47 43 40 32 24 22 26 26 26 21 18 17 18 13 21 18
16 21 8 7 9 10 26 32 41 47 46 39 33 32 27 25 18 17 13 7 6 9 13 21 27 32 34 39 40 39 37 34 28 25 24 24 27 25 21 17 17 19 17 14
18 21 23 24 34 43 45 45 49 52 47 48 35 32 29 27 21 17 14 12 8 6 8 14 16 23 28 34 39 38 37 34 30 27 26 27 30 26 24 24 17 17 17 16
25 22 21 46 44 48 48 49 47 46 41 39 39 34 28 22 18 15 14 13 11 8 6 8 12 19 26 31 35 37 38 37 33 28 27 29 30 30 25 23 21 15 14 16
40 35 37 53 50 58 51 50 44 41 35 31 27 24 24 23 19 18 16 15 13 10 9 10 14 17 22 26 27 29 33 35 33 28 26 30 31 28 26 21 25 17 13 13
35 28 34 65 71 64 53 43 40 38 31 27 27 26 25 25 26 24 20 15 14 10 9 9 13 17 21 25 26 24 25 28 32 28 24 29 30 28 24 21 21 19 20 15
45 35 46 72 73 66 55 41 34 33 32 30 27 25 29 32 32 29 21 17 14 11 7 6 9 18 25 30 33 29 25 23 25 30 26 24 29 27 25 21 17 16 21 18
38 35 60 72 65 55 46 41 36 33 33 30 29 30 33 32 28 25 22 17 11 5 1 7 12 18 24 31 36 37 33 29 26 24 23 24 26 30 28 26 25 20 19 20
33 32 40 44 48 50 49 44 39 34 31 31 30 30 30 29 28 28 24 17 12 5 4 6 10 14 20 31 35 41 35 29 28 26 22 22 26 27 29 26 28 25 21 23
45 61 57 53 47 43 44 40 36 34 29 30 32 31 31 33 30 28 25 17 8 6 4 5 7 15 25 30 33 39 36 28 24 24 22 21 24 23 25 25 23 25 23 22
39 49 46 46 44 39 36 35 34 35 33 31 34 32 32 28 29 31 24 14 10 9 11 11 15 22 32 32 34 37 35 27 23 22 20 19 18 17 17 19 17 18 21 22
38 45 42 38 36 35 30 28 28 30 32 32 30 33 34 35 35 27 20 12 10 14 14 10 11 18 30 39 41 40 42 37 31 22 14 10 7 10 11 12 13 15 16 17
41 39 37 33 27 25 26 25 25 27 31 31 31 38 39 36 32 31 24 15 14 13 8 5 3 7 14 28 38 44 45 44 39 31 22 14 9 4 7 10 14 15 15 15
40 36 28 26 26 26 27 26 24 25 27 29 32 35 36 35 32 27 17 16 12 8 3 8 2 4 5 12 27 34 46 47 52 36 28 19 17 19 16 16 19 23 21 20
29 30 29 28 26 26 26 28 29 29 29 28 29 30 31 35 32 26 17 14 16 5 4 12 7 4 4 5 13 21 27 37 52 53 35 38 30 28 26 24 24 25 23 21
28 27 27 28 25 23 25 26 25 30 30 25 28 28 31 31 30 21 19 18 13 9 8 7 3 5 6 6 7 11 18 22 30 42 48 49 40 37 40 35 31 28 27 26
28 25 22 20 24 24 22 20 24 30 26 25 26 29 38 32 26 26 27 21 13 8 5 3 7 10 10 9 5 6 10 16 18 22 28 42 41 47 32 36 34 39 37 32
Wind_Direction_850mb
230 228 208 198 184 178 196 229 237 249 218 205 195 184 159 156 163 146 117 93 80 76 81 70 56 40 5 277 273 286 252 244 253 262 264 267 267 266 264 259 259 256 261 267
232 200 212 214 196 189 207 187 231 240 250 238 163 158 159 180 179 205 142 104 100 99 78 69 55 40 28 353 325 279 271 262 272 278 268 271 278 289 289 265 252 248 251 262
234 210 202 236 209 197 192 198 209 210 233 152 159 161 172 198 215 225 209 121 173 194 110 72 75 47 7 346 302 293 293 286 266 268 274 280 275 292 279 294 261 245 247 259
233 167 226 202 238 231 216 196 198 173 164 173 161 146 150 162 162 148 143 131 108 120 102 95 86 58 356 324 318 300 290 284 274 273 275 263 268 263 272 257 247 238 237 246
217 217 243 158 173 175 187 201 211 187 157 158 144 134 139 160 149 130 128 118 109 105 75 67 68 134 155 249 296 334 315 293 287 283 272 260 257 254 282 267 255 249 256 262
170 222 232 218 183 177 151 229 187 178 171 164 156 170 167 169 155 143 133 118 110 102 95 89 93 101 70 20 11 355 333 326 323 308 296 286 266 258 267 288 262 255 261 266
197 224 216 191 151 153 202 251 180 188 177 173 188 177 157 157 151 146 136 125 118 114 110 103 94 81 66 36 14 8 360 355 351 352 334 320 306 271 250 267 284 281 269 282
153 228 227 151 129 201 283 299 196 181 173 177 226 144 148 148 148 147 140 129 123 115 99 77 63 45 26 21 20 12 358 351 346 338 344 334 331 289 239 256 252 253 266 307
218 229 140 145 321 301 272 223 191 177 171 175 161 142 142 140 142 146 141 133 126 108 88 41 13 4 0 360 359 1 1 354 340 335 330 337 325 331 255 256 262 264 259 290
159 180 169 152 129 340 243 219 206 178 170 182 164 157 158 154 155 159 126 106 89 50 22 360 352 348 342 341 340 341 342 348 340 326 316 313 315 315 318 305 282 268 261 261
185 171 164 120 80 78 163 189 170 166 176 171 154 161 167 164 168 155 154 143 -0 335 349 341 336 332 334 333 334 337 333 325 329 327 310 314 308 296 288 304 304 254 258 263
231 177 168 174 141 123 178 159 151 163 155 155 154 162 161 173 171 172 180 187 280 301 309 322 324 331 339 342 343 344 344 329 322 321 318 307 314 307 303 276 282 290 284 285
258 239 219 193 192 202 180 154 152 148 151 155 164 169 170 168 170 183 191 195 207 229 301 325 331 343 349 353 353 350 351 341 314 309 313 312 298 304 300 289 273 275 282 288
239 165 133 176 182 181 170 163 153 147 157 162 165 165 168 172 181 185 185 190 198 217 254 304 325 338 345 349 348 347 349 351 339 318 313 312 308 300 283 284 266 251 265 281
233 205 206 189 188 174 169 161 153 156 161 161 163 168 178 184 184 188 194 199 204 224 264 289 314 328 337 342 345 344 346 340 339 330 311 305 313 307 288 262 261 257 267 290
185 192 179 176 163 168 173 169 167 169 171 172 179 184 188 189 191 195 204 210 197 211 259 295 314 329 336 336 335 340 347 344 333 324 317 301 305 307 302 261 252 259 273 280
143 147 158 157 166 176 180 181 186 182 181 187 194 193 184 182 190 197 198 190 197 221 247 276 318 333 337 340 339 330 334 333 330 318 309 304 296 297 298 301 278 263 259 258
185 183 179 174 171 174 180 190 188 186 185 186 188 184 184 188 187 186 188 189 188 199 290 318 321 329 342 346 345 337 329 326 322 314 303 297 293 291 286 280 276 253 230 212
155 144 158 195 181 182 182 183 181 175 180 188 187 187 189 186 183 179 177 174 158 122 18 0 347 347 350 346 345 341 326 315 315 307 306 301 291 281 278 268 256 246 223 217
170 192 187 183 180 179 177 180 178 183 190 194 190 185 183 178 181 184 176 171 152 134 102 48 19 344 345 344 345 342 331 319 314 309 304 299 288 276 265 262 248 233 219 213
163 166 166 170 173 175 183 190 194 198 199 195 194 191 185 184 184 180 180 166 153 123 86 67 67 40 27 14 2 359 358 352 347 329 306 291 280 266 251 249 232 218 204 198
164 162 162 163 170 175 180 186 191 194 196 193 192 190 182 177 173 172 162 155 131 133 113 86 63 47 36 27 19 17 18 19 21 2 343 328 294 255 233 212 201 195 186 174
149 149 151 155 170 178 180 186 193 199 201 196 193 183 181 179 181 177 167 162 140 132 131 120 41 35 23 27 24 26 24 27 28 25 33 39 57 104 155 155 152 148 149 149
139 136 144 145 156 167 174 174 170 165 171 174 175 179 182 181 174 179 184 165 159 172 235 214 195 117 49 25 32 24 33 36 33 34 47 53 75 85 91 110 123 123 126 128
130 134 142 150 162 168 169 170 164 159 155 157 166 174 179 182 177 170 162 158 153 142 330 179 176 142 86 32 21 25 29 37 44 42 54 65 65 81 90 100 101 101 106 110
140 146 150 152 160 162 169 166 164 164 166 161 167 170 171 168 170 175 160 146 139 120 112 148 70 33 333 302 357 25 28 26 35 50 53 60 67 70 74 75 80 83 91 98
141 150 154 155 159 161 160 156 169 162 163 165 161 166 155 153 157 160 153 144 122 89 66 4 300 281 300 328 153 57 50 29 19 27 33 42 48 60 76 74 76 80 84 89